This is the latest recevied weather packets stored in our database for station/object KB0BS-13. If no packets are shown the sender has not sent any weather packets the latest 10 day(s).
| Time | Temp. | Humidity | Pressure | Rain* | Wind** | Luminosity | Snow |
|---|---|---|---|---|---|---|---|
| 1777900971 | 3.89° C | 99% | 998 hPa | 0 mm | - | 201 W/m² | - |
| 1777900668 | 3.89° C | 99% | 998.4 hPa | 0 mm | - | 193 W/m² | - |
| 1777900365 | 3.33° C | 99% | 998.4 hPa | 0 mm | - | 162 W/m² | - |
| 1777900062 | 2.78° C | 99% | 998.6 hPa | 0 mm | - | 157 W/m² | - |
| 1777899758 | 2.78° C | 99% | 998.7 hPa | 0 mm | - | 163 W/m² | - |
| 1777899455 | 2.22° C | 99% | 998.7 hPa | 0 mm | - | 146 W/m² | - |
| 1777899153 | 2.22° C | 99% | 998.7 hPa | 0 mm | - | 142 W/m² | - |
| 1777898851 | 1.67° C | 99% | 998.8 hPa | 0 mm | - | 126 W/m² | - |
| 1777898548 | 1.67° C | 99% | 998.8 hPa | 0 mm | - | 121 W/m² | - |
| 1777898245 | 1.67° C | 99% | 999.2 hPa | 0 mm | - | 118 W/m² | - |
| 1777897942 | 1.67° C | 99% | 999 hPa | 0 mm | - | 131 W/m² | - |
| 1777897638 | 1.11° C | 99% | 999.1 hPa | 0 mm | - | 150 W/m² | - |
| 1777897334 | 1.11° C | 99% | 999.1 hPa | 0 mm | - | 149 W/m² | - |
| 1777897030 | 0.56° C | 99% | 999.3 hPa | 0 mm | - | 124 W/m² | - |
| 1777896728 | 0.56° C | 99% | 999.3 hPa | 0 mm | - | 121 W/m² | - |
| 1777896424 | 0.56° C | 99% | 999.4 hPa | 0 mm | - | 95 W/m² | - |
| 1777896122 | 0.56° C | 99% | 999.7 hPa | 0 mm | - | 78 W/m² | - |
| 1777895820 | 0° C | 99% | 999.7 hPa | 0 mm | - | 84 W/m² | - |
| 1777895517 | 0° C | 99% | 999.8 hPa | 0 mm | - | 83 W/m² | - |
| 1777895215 | 0° C | 99% | 999.6 hPa | 0 mm | - | 98 W/m² | - |
| 1777894912 | 0° C | 99% | 999.7 hPa | 0 mm | - | 92 W/m² | - |
| 1777894609 | 0° C | 99% | 999.5 hPa | 0 mm | - | 81 W/m² | - |
| 1777894306 | -0.56° C | 99% | 999.6 hPa | 0 mm | - | 72 W/m² | - |
| 1777894004 | -0.56° C | 99% | 999.6 hPa | 0 mm | - | 60 W/m² | - |
| 1777893700 | -0.56° C | 99% | 999.6 hPa | 0 mm | - | 53 W/m² | - |
* Rain latest hour (hover to see other rain measurements)
** Current wind speed in m/s (hover to see current wind gust speed)